[[{"header":{"parameterUnit":"m.s-1","parameterCategory":1,"la1":30.2991,"la2":30.254,"lo1":-89.0895,"lo2":-89.0444,"dy":0.0017,"dx":0.0017,"nx":28,"ny":28,"refTime":"2025-05-18T09:00:00:Z","depth":0,"parameterNumber":2,"parameterNumberName":"U-component_of_WINDS"},"data":[0,0,0,0,0,0,0,0,0,0,0,0,0,0,0,0,0,0,0,0,0,0,0,0,0,0,0,0,0,0,0,0,0,0,0,0,0,0,0,0,0,0,0,0,0,0,0,0,0,0,0,0,0,0,0,0,0,0,-1.0577,-1.0576,0,-1.0508,-1.0507,-1.0506,-1.0459,-1.0459,-1.0459,-1.0458,-1.0388,-1.0386,-1.0385,0,0,0,0,0,0,0,0,0,0,0,0,0,-1.067,-1.0669,-1.0577,-1.0576,-1.0576,-1.0508,-1.0507,-1.0506,-1.046,-1.0459,-1.0459,-1.0458,-1.0388,-1.0386,-1.0385,0,0,0,0,0,0,0,0,0,0,0,0,0,-1.0618,-1.0668,-1.0577,-1.0544,-1.054,-1.0508,-1.0507,-1.0506,-1.046,-1.0459,-1.0459,-1.0458,-1.0389,-1.0387,-1.0384,-1.038,0,0,-1.0377,-1.0376,0,0,0,0,0,0,0,0,-1.0621,-1.0615,-1.055,-1.0546,-1.0542,-1.0492,-1.0514,-1.0464,-1.046,-1.049,-1.0458,-1.0458,-1.0423,-1.0418,-1.0406,-1.0376,-1.0373,-1.0377,-1.0375,-1.0374,-1.0374,0,0,0,0,0,0,0,-1.0625,-1.0618,-1.055,-1.0549,-1.0544,-1.0533,-1.0525,-1.0504,-1.046,-1.0488,-1.0484,-1.0476,-1.0421,-1.0408,-1.0404,-1.0372,-1.0377,-1.0375,-1.0373,-1.0372,-1.0336,-1.0336,0,0,0,0,0,0,-1.0634,-1.0621,-1.0552,-1.0548,-1.0581,-1.0532,-1.0523,-1.0508,-1.046,-1.0452,-1.0477,-1.0475,-1.0412,-1.0407,-1.0401,-1.0393,-1.0374,-1.0372,-1.0371,-1.0336,-1.0336,-1.0337,0,0,0,0,0,0,-1.0636,-1.0628,-1.0555,-1.0583,-1.0573,-1.0531,-1.0515,-1.0507,-1.0495,-1.0452,-1.0444,-1.0472,-1.0412,-1.0404,-1.0385,-1.0389,-1.0371,-1.0369,-1.0335,-1.0336,-1.0336,-1.0376,0,0,0,0,0,0,-1.0639,-1.0629,-1.0627,-1.0584,-1.0572,-1.054,-1.0515,-1.0506,-1.0491,-1.0487,-1.0446,-1.0438,-1.0411,-1.0389,-1.0383,-1.0386,-1.0367,-1.0334,-1.0335,-1.0336,-1.0374,-1.0378,-1.0381,0,0,0,0,0,-1.0642,-1.064,-1.0627,-1.0619,-1.0568,-1.0541,-1.0534,-1.0502,-1.0491,-1.0489,-1.0461,-1.044,-1.039,-1.0388,-1.038,-1.0383,-1.0334,-1.0335,-1.0336,-1.0372,-1.0377,-1.0381,0,0,0,0,0,0,-1.0685,-1.0634,-1.0618,-1.0603,-1.0576,-1.0533,-1.0528,-1.0508,-1.0484,-1.0482,-1.0443,-1.0434,-1.0419,-1.0399,-1.0397,-1.0376,-1.0359,-1.0359,-1.039,-1.0394,-1.0397,-1.0402,-1.0365,0,0,0,0,0,-1.0693,-1.0675,-1.0631,-1.0622,-1.0609,-1.0571,-1.0558,-1.0536,-1.0507,-1.0496,-1.0467,-1.044,-1.0418,-1.0405,-1.0382,-1.0371,-1.0361,-1.0369,-1.0372,-1.0375,-1.0376,-1.0368,-1.0371,-1.034,-1.034,-1.034,0,0,-1.0709,-1.0678,-1.0669,-1.063,-1.0606,-1.0589,-1.0562,-1.0545,-1.0531,-1.0493,-1.0473,-1.0452,-1.0419,-1.0404,-1.0395,-1.0386,-1.0382,-1.0377,-1.038,-1.0378,-1.0369,-1.0372,-1.0375,-1.0341,-1.034,-1.034,0,0,-1.0728,-1.0703,-1.0693,-1.067,-1.0636,-1.061,-1.0608,-1.0568,-1.0552,-1.0531,-1.0502,-1.0486,-1.0449,-1.0427,-1.0411,-1.0423,-1.0402,-1.0417,-1.0435,-1.0429,-1.0431,-1.0433,-1.0437,-1.0439,-1.0417,-1.0417,-1.0417,0,-1.0752,-1.0724,-1.069,-1.0674,-1.0658,-1.0622,-1.0612,-1.0591,-1.0552,-1.0541,-1.0531,-1.0485,-1.046,-1.0439,-1.0442,-1.0431,-1.0427,-1.0421,-1.0433,-1.0435,-1.0436,-1.044,-1.0442,-1.0419,-1.0419,-1.0419,-1.0419,0,-1.0755,-1.0736,-1.0732,-1.0694,-1.0677,-1.0664,-1.0628,-1.0615,-1.0595,-1.0571,-1.0551,-1.052,-1.0491,-1.0485,-1.0464,-1.0461,-1.0456,-1.0441,-1.0423,-1.0442,-1.0445,-1.0446,-1.0422,-1.0422,-1.0421,-1.042,0,0,-1.08,-1.0743,-1.0742,-1.0725,-1.0684,-1.0669,-1.0655,-1.0626,-1.0616,-1.059,-1.0576,-1.0546,-1.0532,-1.0514,-1.0491,-1.0485,-1.0496,-1.0469,-1.0468,-1.0476,-1.0491,-1.0503,-1.0505,-1.0482,-1.0482,-1.0483,-1.0494,0,-1.0813,-1.0784,-1.0754,-1.0736,-1.0718,-1.0685,-1.0672,-1.0646,-1.0624,-1.0605,-1.058,-1.056,-1.0542,-1.0531,-1.0523,-1.0497,-1.0499,-1.0495,-1.047,-1.0469,-1.0479,-1.0507,-1.0519,-1.0532,-1.0495,-1.0495,-1.0495,0,-1.0825,-1.08,-1.0781,-1.0742,-1.0733,-1.0722,-1.0694,-1.0677,-1.0647,-1.0631,-1.0611,-1.0587,-1.057,-1.0555,-1.0531,-1.053,-1.0518,-1.0503,-1.0503,-1.0499,-1.0483,-1.0504,-1.0535,-1.0537,-1.0496,-1.0496,-1.0496,0,-1.0859,-1.0821,-1.0805,-1.0791,-1.0745,-1.0738,-1.0719,-1.0688,-1.0673,-1.0649,-1.0639,-1.0613,-1.0598,-1.0579,-1.0548,-1.054,-1.0528,-1.051,-1.0514,-1.0515,-1.0513,-1.0514,-1.0542,-1.0505,-1.0505,-1.0505,-1.0505,0,-1.0878,-1.0867,-1.082,-1.081,-1.0797,-1.0762,-1.0751,-1.0728,-1.0701,-1.0687,-1.0656,-1.0643,-1.0603,-1.0586,-1.0562,-1.0546,-1.054,-1.0526,-1.052,-1.0529,-1.0531,-1.052,-1.0519,-1.0506,-1.0506,-1.0506,-1.0506,0,-1.0914,-1.0882,-1.0862,-1.082,-1.081,-1.0802,-1.0767,-1.0756,-1.0731,-1.0713,-1.0707,-1.0669,-1.0646,-1.0614,-1.0581,-1.0565,-1.0553,-1.0543,-1.0563,-1.056,-1.0565,-1.0565,-1.0588,-1.059,-1.0552,-1.0553,-1.0553,0,-1.0928,-1.0919,-1.0877,-1.0864,-1.0846,-1.0827,-1.0811,-1.0777,-1.0762,-1.0727,-1.072,-1.0696,-1.0674,-1.064,-1.0609,-1.0584,-1.0573,-1.0583,-1.0569,-1.0579,-1.0574,-1.0575,-1.0574,-1.0587,-1.0587,-1.0588,-1.0588,0,-1.0956,-1.094,-1.0919,-1.0892,-1.0875,-1.0852,-1.0828,-1.082,-1.078,-1.0765,-1.0741,-1.0725,-1.0692,-1.0668,-1.0639,-1.0619,-1.0597,-1.0593,-1.0592,-1.0601,-1.0613,-1.0607,-1.0572,-1.0592,-1.0592,-1.0591,-1.0591,-1.0591,-1.0981,-1.0972,-1.0941,-1.0918,-1.0896,-1.0874,-1.0862,-1.0836,-1.0816,-1.0786,-1.0767,-1.0745,-1.0715,-1.0674,-1.0656,-1.0638,-1.0629,-1.0628,-1.0628,-1.0628,-1.0632,-1.0616,-1.0633,-1.0632,-1.0632,-1.0632,-1.0632,0,-1.1008,-1.0986,-1.0966,-1.0933,-1.0915,-1.0896,-1.0868,-1.0855,-1.0835,-1.081,-1.0789,-1.0762,-1.0739,-1.0706,-1.0681,-1.0673,-1.0662,-1.0667,-1.0667,-1.0663,-1.0641,-1.0644,-1.0676,-1.0676,-1.0676,-1.0676,-1.0676,-1.0676,-1.102,-1.1003,-1.0984,-1.0956,-1.0934,-1.0912,-1.0898,-1.0878,-1.0857,-1.0828,-1.0808,-1.0788,-1.0759,-1.0731,-1.0709,-1.07,-1.0692,-1.07,-1.0689,-1.0669,-1.0665,-1.0661,-1.0663,-1.0699,-1.0699,-1.0712,-1.0712,-1.0712]},{"header":{"parameterUnit":"m.s-1","parameterCategory":1,"la1":30.2991,"la2":30.254,"lo1":-89.0895,"lo2":-89.0444,"dy":0.0017,"dx":0.0017,"nx":28,"ny":28,"refTime":"2025-05-18T09:00:00:Z","depth":0,"parameterNumber":3,"parameterNumberName":"V-component_of_WINDS"},"data":[0,0,0,0,0,0,0,0,0,0,0,0,0,0,0,0,0,0,0,0,0,0,0,0,0,0,0,0,0,0,0,0,0,0,0,0,0,0,0,0,0,0,0,0,0,0,0,0,0,0,0,0,0,0,0,0,0,0,4.123,4.123,0,4.1264,4.1264,4.1265,4.121,4.1208,4.1206,4.1204,4.1235,4.1238,4.124,0,0,0,0,0,0,0,0,0,0,0,0,0,4.1113,4.1115,4.123,4.123,4.1231,4.1264,4.1264,4.1265,4.121,4.1208,4.1206,4.1204,4.1234,4.1237,4.1241,0,0,0,0,0,0,0,0,0,0,0,0,0,4.1157,4.1116,4.123,4.1208,4.1206,4.1264,4.1265,4.1265,4.1211,4.1208,4.1205,4.1203,4.1233,4.1237,4.1241,4.1321,0,0,4.1253,4.1254,0,0,0,0,0,0,0,0,4.1155,4.1161,4.121,4.1209,4.1208,4.123,4.1234,4.1284,4.1212,4.1209,4.1204,4.1201,4.1236,4.1239,4.1251,4.1322,4.1324,4.1253,4.1255,4.1257,4.1258,0,0,0,0,0,0,0,4.1152,4.116,4.1243,4.1211,4.1209,4.1194,4.1198,4.1244,4.1237,4.1209,4.1205,4.121,4.1234,4.1248,4.1252,4.1324,4.1253,4.1256,4.1259,4.126,4.1462,4.1465,0,0,0,0,0,0,4.1152,4.1157,4.1242,4.1244,4.1174,4.1199,4.1202,4.1226,4.1237,4.1236,4.1212,4.1207,4.1243,4.1247,4.1253,4.1347,4.1257,4.1261,4.1263,4.1459,4.1463,4.1466,0,0,0,0,0,0,4.115,4.116,4.1241,4.12,4.1209,4.1204,4.123,4.1228,4.1241,4.1239,4.1238,4.1228,4.1241,4.1247,4.1305,4.1347,4.1262,4.1266,4.1455,4.146,4.1464,4.1536,0,0,0,0,0,0,4.1146,4.116,4.1191,4.1201,4.1211,4.1294,4.1233,4.123,4.1249,4.1242,4.1254,4.1253,4.1239,4.1299,4.1308,4.1351,4.1269,4.1451,4.1457,4.1463,4.153,4.1543,4.1554,0,0,0,0,0,4.1143,4.1209,4.1193,4.1203,4.1251,4.1296,4.1302,4.1286,4.1252,4.1283,4.1282,4.1252,4.1341,4.1305,4.1315,4.136,4.1449,4.1456,4.1462,4.1525,4.154,4.1554,0,0,0,0,0,0,4.1202,4.121,4.1192,4.1264,4.128,4.1287,4.1325,4.1303,4.1328,4.1321,4.1299,4.1302,4.1364,4.1367,4.1327,4.1438,4.1389,4.1398,4.1433,4.1448,4.1459,4.1457,4.1272,0,0,0,0,0,4.1224,4.1262,4.1266,4.1329,4.1338,4.1331,4.135,4.1336,4.1351,4.1358,4.136,4.1375,4.1406,4.1427,4.1456,4.153,4.1532,4.1566,4.1578,4.1587,4.1595,4.1635,4.165,4.1488,4.1488,4.1488,0,0,4.1269,4.1278,4.1303,4.1341,4.1352,4.139,4.1337,4.1379,4.1407,4.1363,4.1418,4.1421,4.1436,4.1502,4.1532,4.1507,4.164,4.1596,4.1604,4.1607,4.1644,4.1659,4.1673,4.1493,4.1492,4.1491,0,0,4.1371,4.1381,4.1435,4.1448,4.1465,4.146,4.1473,4.1484,4.1484,4.1539,4.1507,4.1539,4.1593,4.1606,4.1619,4.1725,4.1699,4.1735,4.1797,4.1835,4.1848,4.1859,4.1897,4.1911,4.1743,4.1743,4.1743,0,4.1424,4.1482,4.1465,4.1511,4.1528,4.1492,4.1546,4.1558,4.1584,4.1596,4.1568,4.1636,4.1643,4.1712,4.1739,4.175,4.1764,4.1734,4.1848,4.1859,4.1869,4.1905,4.1919,4.1748,4.1747,4.1747,4.1746,0,4.1546,4.1587,4.1628,4.1656,4.1678,4.1727,4.1717,4.1741,4.1725,4.1722,4.1778,4.1786,4.1816,4.1831,4.1816,4.1898,4.1882,4.1852,4.1802,4.1889,4.1923,4.1936,4.1754,4.1752,4.1751,4.175,0,0,4.1686,4.1705,4.172,4.1732,4.1749,4.178,4.1827,4.1857,4.1878,4.1897,4.1935,4.1983,4.1955,4.197,4.1955,4.199,4.2074,4.1955,4.1955,4.1977,4.2164,4.2187,4.2203,4.2056,4.2059,4.2061,4.2163,0,4.1788,4.1871,4.1858,4.1938,4.1975,4.1941,4.1982,4.1996,4.1995,4.2025,4.2022,4.2056,4.2017,4.2026,4.2058,4.2057,4.2111,4.2049,4.2091,4.2093,4.2089,4.2221,4.2245,4.2341,4.2176,4.2178,4.218,0,4.1917,4.1943,4.2027,4.2039,4.2054,4.2091,4.2118,4.2148,4.2162,4.2159,4.2176,4.2156,4.2201,4.2152,4.2214,4.2172,4.2188,4.219,4.2193,4.2197,4.2141,4.2228,4.2371,4.2386,4.22,4.2198,4.2197,0,4.2011,4.2066,4.2124,4.2136,4.215,4.2177,4.2185,4.2197,4.2216,4.2239,4.2251,4.2278,4.2293,4.2314,4.2301,4.2266,4.2366,4.2315,4.2363,4.2364,4.2386,4.2385,4.2535,4.2397,4.2396,4.2396,4.2396,0,4.2126,4.2179,4.2167,4.2202,4.226,4.2244,4.2301,4.2304,4.2315,4.2349,4.2321,4.2354,4.2334,4.2365,4.2355,4.2408,4.2415,4.2413,4.2409,4.2415,4.2416,4.2426,4.2419,4.24,4.2399,4.2398,4.2398,0,4.2241,4.2235,4.2296,4.2305,4.2309,4.2351,4.2359,4.2391,4.2388,4.2432,4.2441,4.2435,4.247,4.2459,4.2496,4.2489,4.2556,4.2544,4.2552,4.2549,4.2598,4.2594,4.276,4.278,4.2629,4.263,4.2632,0,4.2315,4.2355,4.237,4.2392,4.2401,4.2437,4.2457,4.2441,4.2463,4.2483,4.2513,4.2545,4.2571,4.2628,4.2626,4.2654,4.2642,4.2698,4.2646,4.2651,4.2643,4.2641,4.2645,4.2709,4.2711,4.2712,4.2713,0,4.2447,4.2442,4.2473,4.2503,4.2528,4.255,4.2569,4.2588,4.2574,4.2599,4.2635,4.2655,4.2694,4.2726,4.2752,4.2757,4.2733,4.273,4.2742,4.2749,4.2752,4.2751,4.2581,4.2726,4.2725,4.2724,4.2723,4.2722,4.2544,4.2578,4.2594,4.2629,4.2642,4.2661,4.2692,4.2693,4.2723,4.2755,4.2743,4.2784,4.2797,4.2829,4.2839,4.287,4.2848,4.2866,4.2871,4.2876,4.2882,4.2747,4.2874,4.2874,4.2873,4.2873,4.2873,0,4.2674,4.2683,4.2715,4.2744,4.2771,4.2747,4.2768,4.2792,4.2829,4.2844,4.287,4.2911,4.2942,4.2943,4.2972,4.2997,4.2987,4.3005,4.3003,4.3005,4.29,4.2886,4.3013,4.3013,4.3013,4.3013,4.3013,4.3013,4.2745,4.2802,4.2799,4.2862,4.2869,4.2911,4.2925,4.2941,4.2954,4.3001,4.3028,4.3029,4.3038,4.3067,4.3095,4.3094,4.3106,4.3129,4.3124,4.3026,4.3012,4.2999,4.2986,4.3132,4.3132,4.3226,4.3227,4.3228]}]]